Location: Deneb Observatory
(47.2267°N, 100.4953°W)
Time: 23:16:31
(UTC-05:00)

Amateur Radio Satellites - All Passes

Search period start: 26 May 2017 22:46
Search period end: 27 May 2017 22:46
Location: Deneb Observatory, 47.2267°N, 100.4953°W

Satellite Date Start Highest point End Downlink Frequencies (MHz)
Time Altitude Azimuth
UNISAT 6 26 May 23:13:14 23:17:25 33° 96° (E) 23:21:38 437.425
PRISM 26 May 23:17:19 23:21:11 40° 99° (E) 23:25:01 437.425
M-CUBED/EXP-1 PRIME 26 May 23:20:37 23:23:34 30° 297° (WNW) 23:26:27 437.505
LO-87 26 May 23:22:12 23:25:28 36° 71° (ENE) 23:28:46 145.935 - 145.965
FO-29 26 May 23:27:54 23:34:06 52° 100° (E) 23:41:03 435.910
Tancredo 1 26 May 23:32:32 23:35:29 40° 348° (NNW) 23:38:26 437.200
ESTCUBE 1 26 May 23:46:37 23:50:58 46° 70° (ENE) 23:55:20 437.505/2401.250
SO-50 26 May 23:47:51 23:52:25 73° 124° (SE) 23:56:57 436.795
ISS 27 May 00:06:08 00:09:17 40° 351° (N) 00:12:26 437.550
TIGRISAT 27 May 00:17:48 00:22:21 64° 287° (WNW) 00:26:58 435.000
NANOSAT C BR1 27 May 00:25:52 00:27:42 12° 89° (E) 00:29:31 145.865
POLYITAN 1 27 May 00:30:03 00:32:37 15° 90° (E) 00:35:10 437.675
SPROUT 27 May 00:33:50 00:37:44 37° 69° (ENE) 00:41:40 437.525
50 SAT 27 May 00:35:03 00:37:26 18° 65° (ENE) 00:39:49 437.505
DUCHIFAT 1 27 May 00:35:59 00:38:21 14° 90° (E) 00:40:40 145.980
QB50P2 27 May 00:38:15 00:41:26 20° 92° (E) 00:44:37 145.880/145.840
AIST 2D 27 May 00:40:25 00:43:44 35° 97° (E) 00:47:02 435.315
VELOX 1 27 May 00:41:23 00:45:36 46° 70° (ENE) 00:49:50 145.980
UNISAT 6 27 May 00:50:02 00:54:03 31° 294° (WNW) 00:58:06 437.425
PRISM 27 May 00:53:10 00:56:13 21° 297° (WNW) 00:59:15 437.425
LO-87 27 May 00:56:46 00:59:04 16° 268° (W) 01:01:23 145.935 - 145.965
RS-15 27 May 01:00:10 01:05:21 14° 91° (E) 01:10:33 29.354- 29.394
UKube-1 27 May 01:08:28 01:11:58 25° 64° (ENE) 01:15:28 .
Tancredo 1 27 May 01:08:45 01:11:39 37° 8° (N) 01:14:33 437.200
FO-29 27 May 01:13:25 01:19:00 35° 296° (WNW) 01:25:11 435.910
EO-79 27 May 01:14:40 01:18:44 42° 98° (E) 01:22:48 145.935-145.965
DX 1 27 May 01:16:07 01:20:11 40° 69° (ENE) 01:24:15 434.975-435.025
ESTCUBE 1 27 May 01:24:33 01:28:00 21° 268° (W) 01:31:28 437.505/2401.250
SO-50 27 May 01:29:42 01:33:20 23° 325° (NW) 01:36:57 436.795
ISS 27 May 01:43:03 01:46:13 42° 11° (N) 01:49:22 437.550
YUBILEINY 27 May 01:45:25 01:53:40 50° 88° (E) 02:01:59 435.215
Oscar 19 27 May 01:56:05 01:58:43 14° 88° (E) 02:01:21 437.125/150
PCSat 27 May 01:58:50 01:59:50 10° 15° (NNE) 02:00:50 145.827
NANOSAT C BR1 27 May 01:59:39 02:03:53 71° 287° (WNW) 02:08:07 145.865
POLYITAN 1 27 May 02:04:33 02:08:46 58° 288° (WNW) 02:12:58 437.675
50 SAT 27 May 02:06:54 02:10:04 34° 262° (W) 02:13:15 437.505
DUCHIFAT 1 27 May 02:10:13 02:14:24 61° 287° (WNW) 02:18:35 145.980
SPROUT 27 May 02:10:23 02:13:46 23° 267° (W) 02:17:09 437.525
QB50P2 27 May 02:13:23 02:17:25 43° 290° (WNW) 02:21:29 145.880/145.840
AIST 2D 27 May 02:14:12 02:16:43 18° 295° (WNW) 02:19:13 435.315
VELOX 1 27 May 02:19:01 02:22:17 20° 268° (W) 02:25:34 145.980
BEESAT 27 May 02:25:43 02:28:52 18° 59° (ENE) 02:32:04 436.000
BUGSAT 1 27 May 02:26:53 02:31:00 66° 102° (ESE) 02:35:09 437.445
UKube-1 27 May 02:43:48 02:47:49 37° 262° (W) 02:51:52 .
Tancredo 1 27 May 02:44:31 02:47:36 75° 207° (SSW) 02:50:38 437.200
EO-79 27 May 02:51:01 02:54:15 22° 296° (WNW) 02:57:30 145.935-145.965
DX 1 27 May 02:53:04 02:56:31 23° 266° (W) 02:59:58 434.975-435.025
RS-15 27 May 03:03:11 03:14:53 59° 115° (ESE) 03:26:49 29.354- 29.394
Gurwin Techsat 1B 27 May 03:14:21 03:19:25 42° 98° (E) 03:24:27 435.225
ISS 27 May 03:19:34 03:22:49 60° 211° (SSW) 03:26:04 437.550
ITUPSAT 1 27 May 03:28:10 03:32:52 60° 71° (ENE) 03:37:36 437.325
Oscar 19 27 May 03:33:31 03:38:44 85° 286° (WNW) 03:43:52 437.125/150
MOZHAYETS 4 27 May 03:40:11 03:44:32 44° 70° (ENE) 03:48:57
PCSat 27 May 03:40:39 03:45:14 27° 40° (NE) 03:49:47 145.827
YUBILEINY 27 May 03:42:27 03:50:37 43° 291° (WNW) 03:58:55 435.215
BEESAT 27 May 04:01:25 04:06:09 67° 258° (WSW) 04:10:56 436.000
BUGSAT 1 27 May 04:03:38 04:05:53 14° 300° (WNW) 04:08:09 437.445
Tancredo 1 27 May 04:21:30 04:22:52 12° 225° (SW) 04:24:15 437.200
CUBESAT XI-V 27 May 04:27:50 04:31:48 28° 65° (ENE) 04:35:47 437.345
O/OREOS (USA 219) 27 May 04:29:45 04:33:47 31° 105° (ESE) 04:37:49 437.305
KKS-1 27 May 04:30:55 04:34:32 25° 64° (ENE) 04:38:09 437.445
ITAMSAT 1 27 May 04:36:11 04:40:56 34° 97° (E) 04:45:41 435.822/435.867
Gurwin Techsat 1B 27 May 04:54:36 04:59:14 31° 296° (WNW) 05:03:49 435.225
SO-50 27 May 04:57:24 04:58:08 10° 15° (NNE) 04:58:51 436.795
ISS 27 May 04:58:05 04:58:44 10° 228° (SW) 04:59:24 437.550
STARS 27 May 05:00:43 05:04:06 23° 63° (ENE) 05:07:30 437.465
AO-7 27 May 05:03:12 05:11:21 52° 102° (ESE) 05:19:28 .
ITUPSAT 1 27 May 05:07:51 05:11:06 18° 269° (W) 05:14:21 437.325
Oscar 19 27 May 05:14:32 05:17:16 15° 305° (NW) 05:20:00 437.125/150
RS-15 27 May 05:15:35 05:27:38 58° 321° (NW) 05:39:50 29.354- 29.394
MOZHAYETS 4 27 May 05:18:14 05:21:53 23° 267° (W) 05:25:35
PCSat 27 May 05:23:42 05:29:08 69° 241° (WSW) 05:34:30 145.827
AO-85 27 May 05:26:12 05:30:02 37° 120° (ESE) 05:33:44 145.980
YUBILEINY 27 May 05:49:48 05:50:31 10° 318° (NW) 05:51:13 435.215
BEESAT 2 27 May 05:58:32 05:59:21 11° 108° (ESE) 06:00:11 435.950
CUBESAT XI-V 27 May 06:04:37 06:09:01 39° 263° (W) 06:13:27 437.345
KKS-1 27 May 06:06:47 06:10:55 38° 262° (W) 06:15:05 437.445
O/OREOS (USA 219) 27 May 06:08:56 06:13:08 34° 304° (NW) 06:17:21 437.305
BEESAT 3 27 May 06:14:09 06:17:51 39° 119° (ESE) 06:21:36 437.485
ITAMSAT 1 27 May 06:15:40 06:20:24 36° 295° (WNW) 06:25:08 435.822/435.867
DOVE 4 27 May 06:33:54 06:36:45 18° 92° (E) 06:39:38 437.250
STARS 27 May 06:36:04 06:40:12 42° 261° (W) 06:44:23 437.465
SO-50 27 May 06:36:11 06:40:06 28° 38° (NE) 06:44:00 436.795
CUTE-I 27 May 06:37:10 06:39:06 12° 86° (E) 06:41:02 437.470
AO-7 27 May 06:56:16 07:04:00 44° 302° (WNW) 07:11:43 .
XW-2D 27 May 07:03:16 07:06:08 19° 92° (E) 07:08:58 145.860 - 145.880
AO-85 27 May 07:06:56 07:10:30 28° 318° (NW) 07:13:58 145.980
PCSat 27 May 07:10:28 07:11:29 10° 259° (W) 07:12:30 145.827
XW-2B 27 May 07:11:03 07:14:09 23° 94° (E) 07:17:13 145.730 - 145.750
NUDT-PHONESAT 27 May 07:20:26 07:23:28 22° 94° (E) 07:26:29 437.300
XW-2F 27 May 07:23:00 07:26:25 29° 96° (E) 07:29:47 145.980 - 146.000
XW-2C 27 May 07:24:27 07:27:58 32° 97° (E) 07:31:26 145.795 - 145.815
KAITUO 1B 27 May 07:29:35 07:32:57 29° 96° (E) 07:36:16 145.475/437.950
BEESAT 2 27 May 07:32:26 07:36:25 90° 330° (NNW) 07:40:30 435.950
RS-15 27 May 07:32:27 07:43:27 35° 353° (N) 07:54:21 29.354- 29.394
STRAND 1 27 May 07:40:38 07:45:32 50° 69° (ENE) 07:50:29 437.568
BEESAT 3 27 May 07:52:02 07:55:32 28° 319° (NW) 07:59:04 437.485
HO-68 27 May 07:56:41 08:01:55 21° 89° (E) 08:07:08 435.675
LilacSat-2 27 May 08:03:03 08:06:58 86° 278° (W) 08:10:50 437.200
DOVE 4 27 May 08:10:44 08:14:43 46° 289° (WNW) 08:18:46 437.250
CUTE-I 27 May 08:14:37 08:19:59 81° 104° (ESE) 08:25:21 437.470
CUTE 1.7 + AOD 2 27 May 08:15:10 08:18:17 19° 91° (E) 08:21:22 437.475
SO-50 27 May 08:16:25 08:20:49 52° 238° (WSW) 08:25:12 436.795
M-CUBED/EXP-1 PRIME 27 May 08:34:08 08:38:09 48° 66° (ENE) 08:41:52 437.505
XW-2D 27 May 08:36:52 08:40:27 36° 290° (WNW) 08:43:59 145.860 - 145.880
XW-2B 27 May 08:44:56 08:48:23 31° 291° (WNW) 08:51:48 145.730 - 145.750
AO-7 27 May 08:51:03 08:54:39 14° 326° (NW) 08:58:15 .
NUDT-PHONESAT 27 May 08:54:03 08:57:24 30° 291° (WNW) 09:00:44 437.300
XW-2F 27 May 08:57:17 09:00:26 24° 293° (WNW) 09:03:34 145.980 - 146.000
XW-2C 27 May 08:58:55 09:02:00 23° 294° (WNW) 09:05:04 145.795 - 145.815
CUBEBUG 2 27 May 08:59:07 09:03:09 30° 95° (E) 09:07:15 437.445
SEEDS 27 May 09:02:33 09:06:31 38° 97° (E) 09:10:26 437.485
KAITUO 1B 27 May 09:03:43 09:06:51 24° 293° (WNW) 09:09:58 145.475/437.950
NO-84 27 May 09:03:58 09:07:32 25° 131° (SE) 09:11:02 435.350 FM
UWE-3 27 May 09:08:17 09:11:58 23° 93° (E) 09:15:41 435.000/436.395/437.385
BEESAT 2 27 May 09:12:04 09:14:46 17° 327° (NNW) 09:17:30 435.950
XW-2A 27 May 09:13:12 09:16:38 70° 102° (ESE) 09:20:05 145.665 - 145.685
STRAND 1 27 May 09:20:56 09:24:59 24° 267° (W) 09:29:05 437.568
Oscar 11 27 May 09:38:31 09:41:39 19° 91° (E) 09:44:46 .
HO-68 27 May 09:43:14 09:50:29 84° 289° (WNW) 09:57:41 435.675
TIGRISAT 27 May 09:44:12 09:47:18 20° 62° (ENE) 09:50:26 435.000
FO-29 27 May 09:45:21 09:49:39 27° 61° (ENE) 09:54:08 435.910
RS-15 27 May 09:48:22 10:00:01 44° 27° (NNE) 10:11:15 29.354- 29.394
CUTE 1.7 + AOD 2 27 May 09:50:15 09:54:20 45° 289° (WNW) 09:58:23 437.475
CUTE-I 27 May 09:55:56 09:59:24 18° 303° (WNW) 10:02:52 437.470
AAUSAT CUBESAT 2 27 May 10:00:00 10:04:10 77° 102° (ESE) 10:08:17 437.432
AO-73 27 May 10:05:09 10:09:31 44° 98° (E) 10:13:54 145.935
PRISM 27 May 10:09:08 10:13:05 45° 70° (ENE) 10:17:01 437.425
M-CUBED/EXP-1 PRIME 27 May 10:09:58 10:12:45 17° 261° (W) 10:15:26 437.505
DELFI C3 27 May 10:14:17 10:15:43 12° 88° (E) 10:17:07 145.870
UNISAT 6 27 May 10:15:01 10:19:01 40° 69° (ENE) 10:23:08 437.425
ZACube-1 27 May 10:19:30 10:24:03 68° 102° (ESE) 10:28:37 437.345
CUBEBUG 2 27 May 10:35:39 10:39:47 34° 292° (WNW) 10:43:59 437.445
SEEDS 27 May 10:38:40 10:42:00 23° 295° (WNW) 10:45:19 437.485
NO-84 27 May 10:40:31 10:44:53 74° 330° (NNW) 10:49:04 435.350 FM
UWE-3 27 May 10:44:15 10:48:35 43° 290° (WNW) 10:52:58 435.000/436.395/437.385
Oscar 11 27 May 11:13:50 11:18:02 47° 289° (WNW) 11:22:12 .
AIST 2D 27 May 11:18:02 11:20:47 22° 67° (ENE) 11:23:33 435.315
TIGRISAT 27 May 11:19:30 11:23:39 49° 261° (W) 11:27:54 435.000
NANOSAT C BR1 27 May 11:20:52 11:23:14 15° 60° (ENE) 11:25:37 145.865
POLYITAN 1 27 May 11:25:36 11:28:27 18° 62° (ENE) 11:31:19 437.675
FO-29 27 May 11:29:37 11:34:34 45° 262° (W) 11:39:44 435.910
DUCHIFAT 1 27 May 11:30:47 11:33:27 17° 61° (ENE) 11:36:08 145.980
HO-68 27 May 11:32:10 11:37:14 21° 310° (NW) 11:42:18 435.675
QB50P2 27 May 11:33:46 11:37:05 23° 64° (ENE) 11:40:24 145.880/145.840
AAUSAT CUBESAT 2 27 May 11:37:13 11:39:02 13° 301° (WNW) 11:40:50 437.432
EO-88 27 May 11:38:31 11:42:14 74° 102° (ESE) 11:45:54 145.990 - 145.960
AO-73 27 May 11:41:55 11:45:30 23° 296° (WNW) 11:49:07 145.935
PRISM 27 May 11:45:40 11:48:35 18° 267° (W) 11:51:30 437.425
DELFI C3 27 May 11:47:01 11:50:56 65° 285° (WNW) 11:54:48 145.870
YUBILEINY 27 May 11:51:24 11:58:57 30° 63° (ENE) 12:06:27 435.215
UNISAT 6 27 May 11:52:33 11:55:55 22° 268° (W) 11:59:20 437.425
ZACube-1 27 May 11:56:59 11:59:50 17° 299° (WNW) 12:02:41 437.345
RS-15 27 May 12:01:43 12:14:04 87° 235° (SW) 12:25:46 29.354- 29.394
EO-79 27 May 12:09:45 12:13:46 47° 71° (ENE) 12:17:49 145.935-145.965
AO-85 27 May 12:14:21 12:16:51 16° 33° (NNE) 12:19:24 145.980
NO-84 27 May 12:19:11 12:22:59 30° 348° (NNW) 12:26:35 435.350 FM
LO-87 27 May 12:19:16 12:22:26 29° 96° (E) 12:25:35 145.935 - 145.965
AIST 2D 27 May 12:50:47 12:53:51 28° 264° (W) 12:56:58 435.315
BEESAT 3 27 May 12:51:16 12:53:28 14° 29° (NNE) 12:55:41 437.485
NANOSAT C BR1 27 May 12:54:19 12:58:28 65° 259° (WSW) 13:02:39 145.865
O/OREOS (USA 219) 27 May 12:57:48 13:00:39 16° 46° (NE) 13:03:29 437.305
POLYITAN 1 27 May 12:59:47 13:03:52 52° 260° (W) 13:08:00 437.675
Gurwin Techsat 1B 27 May 13:01:30 13:04:36 16° 55° (NE) 13:07:41 435.225
DUCHIFAT 1 27 May 13:04:37 13:08:42 56° 260° (W) 13:12:50 145.980
QB50P2 27 May 13:08:44 13:12:40 38° 263° (W) 13:16:38 145.880/145.840
ESTCUBE 1 27 May 13:12:19 13:16:49 66° 101° (E) 13:21:18 437.505/2401.250
EO-88 27 May 13:14:24 13:15:20 11° 300° (WNW) 13:16:17 145.990 - 145.960
Oscar 19 27 May 13:15:08 13:19:35 29° 63° (ENE) 13:24:02 437.125/150
BUGSAT 1 27 May 13:19:15 13:23:14 68° 73° (ENE) 13:27:14 437.445
50 SAT 27 May 13:28:24 13:29:22 11° 90° (E) 13:30:19 437.505
EO-79 27 May 13:46:52 13:49:47 18° 268° (W) 13:52:43 145.935-145.965
YUBILEINY 27 May 13:47:48 13:56:37 73° 266° (W) 14:05:23 435.215
SPROUT 27 May 13:51:41 13:55:50 46° 99° (E) 13:59:57 437.525
LO-87 27 May 13:53:01 13:55:44 21° 293° (WNW) 13:58:27 145.935 - 145.965
AO-85 27 May 13:53:48 13:57:50 84° 56° (NE) 14:02:02 145.980
NO-84 27 May 13:57:48 14:01:25 29° 10° (N) 14:04:48 435.350 FM
VELOX 1 27 May 14:04:14 14:08:36 60° 101° (ESE) 14:12:56 145.980
BEESAT 2 27 May 14:10:01 14:13:20 23° 38° (NE) 14:16:38 435.950
AO-7 27 May 14:15:30 14:21:54 26° 48° (NE) 14:28:19 .
RS-15 27 May 14:15:34 14:24:47 27° 260° (W) 14:33:43 29.354- 29.394
ITAMSAT 1 27 May 14:21:30 14:23:39 13° 53° (NE) 14:25:48 435.822/435.867
UKube-1 27 May 14:27:33 14:31:13 27° 95° (E) 14:34:53 .
BEESAT 3 27 May 14:27:49 14:31:50 65° 50° (NE) 14:35:49 437.485
O/OREOS (USA 219) 27 May 14:36:08 14:40:41 81° 247° (WSW) 14:45:10 437.305
DX 1 27 May 14:36:50 14:41:03 47° 100° (E) 14:45:13 434.975-435.025
Gurwin Techsat 1B 27 May 14:38:29 14:43:48 89° 76° (ENE) 14:49:10 435.225
ESTCUBE 1 27 May 14:50:18 14:53:08 17° 300° (WNW) 14:55:57 437.505/2401.250
Oscar 19 27 May 14:53:47 14:58:44 43° 262° (W) 15:03:41 437.125/150
BUGSAT 1 27 May 14:57:37 14:59:04 12° 271° (W) 15:00:31 437.445
50 SAT 27 May 14:59:13 15:02:34 51° 287° (WNW) 15:05:51 437.505
ITUPSAT 1 27 May 15:27:29 15:29:20 12° 87° (E) 15:31:11 437.325
SPROUT 27 May 15:28:18 15:31:26 20° 297° (WNW) 15:34:34 437.525
NO-84 27 May 15:35:34 15:39:31 72° 31° (NNE) 15:43:06 435.350 FM
AO-85 27 May 15:36:12 15:37:39 12° 249° (WSW) 15:39:08 145.980
VELOX 1 27 May 15:41:46 15:44:37 17° 300° (WNW) 15:47:27 145.980
YUBILEINY 27 May 15:46:56 15:51:46 16° 288° (WNW) 15:56:36 435.215
BEESAT 2 27 May 15:47:24 15:51:23 55° 238° (WSW) 15:55:20 435.950
ITAMSAT 1 27 May 15:57:05 16:02:13 72° 72° (ENE) 16:07:25 435.822/435.867
BEESAT 27 May 15:58:44 16:02:39 24° 94° (E) 16:06:32 436.000
UKube-1 27 May 16:03:24 16:07:16 33° 293° (WNW) 16:11:08 .
AO-7 27 May 16:05:22 16:13:40 88° 69° (ENE) 16:22:02 .
BEESAT 3 27 May 16:06:37 16:08:57 15° 249° (WSW) 16:11:15 437.485
DX 1 27 May 16:13:43 16:16:55 20° 298° (WNW) 16:20:06 434.975-435.025
Gurwin Techsat 1B 27 May 16:21:52 16:24:29 14° 273° (W) 16:27:07 435.225
ITUPSAT 1 27 May 17:02:59 17:07:50 88° 285° (WNW) 17:12:40 437.325
MOZHAYETS 4 27 May 17:08:39 17:13:19 67° 102° (ESE) 17:17:56
NO-84 27 May 17:13:57 17:16:38 19° 231° (SW) 17:19:09 435.350 FM
BEESAT 27 May 17:36:02 17:40:36 44° 291° (WNW) 17:45:08 436.000
ITAMSAT 1 27 May 17:38:59 17:42:14 17° 270° (W) 17:45:31 435.822/435.867
DOVE 4 27 May 17:42:02 17:45:50 27° 67° (ENE) 17:49:29 437.250
XW-2D 27 May 17:48:00 17:50:23 16° 63° (ENE) 17:52:47 145.860 - 145.880
KKS-1 27 May 17:54:18 17:58:14 30° 96° (E) 18:02:08 437.445
XW-2B 27 May 17:55:38 17:58:19 18° 64° (ENE) 18:01:01 145.730 - 145.750
CUBESAT XI-V 27 May 17:57:38 18:02:03 41° 98° (E) 18:06:25 437.345
CUTE-I 27 May 18:00:50 18:05:18 28° 62° (ENE) 18:09:45 437.470
AO-7 27 May 18:01:20 18:07:28 22° 270° (W) 18:13:40 .
NUDT-PHONESAT 27 May 18:03:09 18:05:40 17° 64° (ENE) 18:08:11 437.300
XW-2F 27 May 18:06:59 18:10:01 23° 66° (ENE) 18:13:06 145.980 - 146.000
XW-2C 27 May 18:08:46 18:11:56 25° 67° (ENE) 18:15:07 145.795 - 145.815
KAITUO 1B 27 May 18:12:44 18:15:42 22° 66° (ENE) 18:18:41 145.475/437.950
STARS 27 May 18:22:12 18:25:55 26° 95° (E) 18:29:36 437.465
HO-68 27 May 18:29:14 18:34:44 25° 53° (NE) 18:40:15 435.675
ITUPSAT 1 27 May 18:42:32 18:44:57 14° 304° (NW) 18:47:21 437.325
MOZHAYETS 4 27 May 18:46:58 18:49:58 17° 300° (WNW) 18:52:57
LilacSat-2 27 May 18:47:25 18:51:14 71° 75° (ENE) 18:55:07 437.200
CUTE 1.7 + AOD 2 27 May 19:10:43 19:13:59 21° 64° (ENE) 19:17:15 437.475
DOVE 4 27 May 19:19:20 19:23:28 33° 264° (W) 19:27:25 437.250
XW-2D 27 May 19:20:31 19:24:12 48° 261° (W) 19:27:58 145.860 - 145.880
XW-2B 27 May 19:28:37 19:32:13 40° 262° (W) 19:35:54 145.730 - 145.750
KKS-1 27 May 19:30:51 19:34:46 31° 294° (WNW) 19:38:40 437.445
CUBESAT XI-V 27 May 19:35:24 19:39:13 26° 296° (WNW) 19:43:00 437.345
NUDT-PHONESAT 27 May 19:35:43 19:39:16 41° 262° (W) 19:42:52 437.300
CUTE-I 27 May 19:40:01 19:45:07 47° 261° (W) 19:50:15 437.470
XW-2F 27 May 19:40:37 19:44:02 31° 264° (W) 19:47:28 145.980 - 146.000
XW-2C 27 May 19:42:43 19:46:02 28° 264° (W) 19:49:25 145.795 - 145.815
KAITUO 1B 27 May 19:46:08 19:49:32 32° 264° (W) 19:53:00 145.475/437.950
XW-2A 27 May 19:47:20 19:50:27 36° 71° (ENE) 19:53:35 145.665 - 145.685
STRAND 1 27 May 19:49:33 19:51:58 13° 87° (E) 19:54:23 437.568
SEEDS 27 May 19:56:49 20:00:46 39° 70° (ENE) 20:04:45 437.485
STARS 27 May 19:58:18 20:02:19 35° 293° (WNW) 20:06:18 437.465
CUBEBUG 2 27 May 20:00:21 20:04:05 32° 67° (ENE) 20:07:55 437.445
PCSat 27 May 20:08:01 20:13:20 59° 118° (ESE) 20:18:41 145.827
UWE-3 27 May 20:08:26 20:11:53 25° 65° (ENE) 20:15:27 435.000/436.395/437.385
HO-68 27 May 20:14:29 20:21:41 84° 253° (WSW) 20:28:57 435.675
LilacSat-2 27 May 20:25:13 20:26:00 10° 272° (W) 20:26:48 437.200
Oscar 11 27 May 20:36:10 20:39:33 22° 64° (ENE) 20:42:56 .
CUTE 1.7 + AOD 2 27 May 20:45:27 20:49:33 43° 262° (W) 20:53:40 437.475
AAUSAT CUBESAT 2 27 May 20:52:32 20:56:41 74° 75° (ENE) 21:00:53 437.432
Tancredo 1 27 May 20:54:18 20:56:59 27° 142° (SE) 20:59:39 437.200
DELFI C3 27 May 21:03:06 21:04:35 12° 60° (ENE) 21:06:05 145.870
AO-73 27 May 21:03:24 21:07:29 47° 71° (ENE) 21:11:41 145.935
ZACube-1 27 May 21:18:00 21:22:14 74° 75° (ENE) 21:26:35 437.345
XW-2A 27 May 21:21:20 21:23:22 15° 268° (W) 21:25:23 145.665 - 145.685
STRAND 1 27 May 21:26:40 21:31:52 88° 282° (WNW) 21:37:02 437.568
SEEDS 27 May 21:33:16 21:36:36 22° 267° (W) 21:39:57 437.485
CUBEBUG 2 27 May 21:37:14 21:40:45 26° 266° (W) 21:44:21 437.445
ISS 27 May 21:37:29 21:40:39 43° 146° (SE) 21:43:48 437.550
UWE-3 27 May 21:44:21 21:48:12 35° 264° (W) 21:52:11 435.000/436.395/437.385
M-CUBED/EXP-1 PRIME 27 May 21:44:51 21:46:56 16° 98° (E) 21:48:59 437.505
PCSat 27 May 21:52:21 21:57:05 30° 318° (NW) 22:01:51 145.827
HO-68 27 May 22:06:00 22:10:28 17° 273° (W) 22:14:58 435.675
Oscar 11 27 May 22:11:18 22:15:25 42° 262° (W) 22:19:36 .
EO-88 27 May 22:18:56 22:22:28 48° 72° (ENE) 22:26:02 145.990 - 145.960
Tancredo 1 27 May 22:29:32 22:32:34 59° 340° (NNW) 22:35:37 437.200
AAUSAT CUBESAT 2 27 May 22:31:09 22:32:39 12° 272° (W) 22:34:10 437.432
FO-29 27 May 22:33:43 22:38:42 22° 91° (E) 22:44:03 435.910
SO-50 27 May 22:34:00 22:37:37 23° 114° (ESE) 22:41:13 436.795
DELFI C3 27 May 22:34:47 22:38:48 78° 259° (W) 22:42:48 145.870
ESTCUBE 1 27 May 22:41:03 22:42:53 12° 57° (ENE) 22:44:43 437.505/2401.250
